Location: De Har
(53.3413°N, 6.6858°E)
Time: 16:27:45
(UTC+00:00)

Cosmos 1486 Rocket - Pass Details

Date: 22 April 2026
Orbit: 755 x 778 km, 74.1° (Epoch: 9 May)

Event Time Altitude Azimuth Distance (km) Brightness Sun altitude
Rises 00:59:07 0° 334° (NNW) 3,228 7.8 -21.9°
Reaches altitude 10° 01:01:29 10° 335° (NNW) 2,301 7.0 -21.8°
Maximum altitude 01:06:43 81° 63° (ENE) 778 4.0 -21.4°
Enters shadow 01:09:37 27° 148° (SSE) 1,431 5.1 -21.3°
